Flag for U.S.A. Weather past 2 weeks in Cedar Rapids, Iowa, U.S.A.

Now
47 °F

Clear.


Feels Like: 47 °F
Forecast: 44 / 69 °F
Wind: No wind

Location: Cedar Rapids Municipal Airport

Current Time: Sep 17, 2014 at 7:17:05 AM

Latest Report: Sep 17, 2014 at 5:52 AM


Visibility: 10 mi

Pressure: 30.01 "Hg

Humidity: 97%

Dew point: 46 °F

Location of Cedar RapidsLocation

Historic Weather in Cedar Rapids — Graph

°F

Cedar Rapids temperature yesterday

Maximum temperature yesterday: 66 °F (at 3:52 PM)
Minimum temperature yesterday: 40 °F (at 5:52 AM)
Average temperature yesterday: 53 °F

Past Weeks' High & Low Weather Summary

 TemperatureHumidityPressure
High89 °F (Sep 4, 3:52 PM)100% (Sep 2, 5:52 AM)30.41 "Hg (Sep 2, 5:52 AM)
Low35 °F (Sep 13, 4:52 AM)44% (Sep 13, 1:52 PM)29.48 "Hg (Sep 10, 3:52 AM)
Average61 °F83%30.06 "Hg
* Reported Sep 2 5:52 AM — Sep 17 5:52 AM, Cedar Rapids, Weather by CustomWeather, © 2014

Note: Actual official high and low records may vary slightly from our data, if they occured in-between our weather recording intervals... More about our weather records

Advertising

Cedar Rapids weather history for previous 24 hours

 ConditionsComfort  
Time TempWeatherWind HumidityBarometerVisibility
5:52 AM
Sep 17
47 °FClear.No wind97%30.01 "Hg10 mi
4:52 AM49 °FOvercast.3 mph97%30.01 "Hg10 mi
3:52 AM46 °FPassing clouds.3 mph100%30.02 "Hg10 mi
2:52 AM46 °FPassing clouds.3 mph96%30.03 "Hg10 mi
1:52 AM47 °FPassing clouds.3 mph97%30.04 "Hg10 mi
12:52 AM46 °FClear.No wind96%30.06 "Hg10 mi
11:52 PM
Sep 16
47 °FClear.3 mph93%30.07 "Hg10 mi
10:52 PM48 °FClear.No wind93%30.08 "Hg10 mi
9:52 PM49 °FClear.No wind90%30.08 "Hg10 mi
8:52 PM50 °FClear.5 mph86%30.08 "Hg10 mi
7:52 PM53 °FSunny.No wind83%30.08 "Hg10 mi
6:52 PM61 °FSunny.No wind70%30.08 "Hg10 mi
5:52 PM64 °FSunny.3 mph52%30.09 "Hg10 mi
4:52 PM65 °FSunny.7 mph49%30.11 "Hg10 mi
3:52 PM66 °FSunny.No wind49%30.12 "Hg10 mi
2:52 PM64 °FSunny.5 mph52%30.14 "Hg10 mi
1:52 PM63 °FSunny.7 mph54%30.16 "Hg10 mi
12:52 PM62 °FSunny.N/A56%30.19 "Hg10 mi
11:52 AM60 °FPassing clouds.3 mph53%30.22 "Hg10 mi
10:52 AM59 °FSunny.3 mph62%30.23 "Hg10 mi
9:52 AM55 °FSunny.No wind74%30.25 "Hg10 mi
8:52 AM49 °FSunny.No wind93%30.24 "Hg10 mi
7:52 AM43 °FSunny.No wind100%30.25 "Hg8 mi
Weather by CustomWeather, © 2014

See weather overviewHow to use our weather pages